YO8RXT-3 Weather Reports


Display with metric or nautical units.
time (UTC)temp
F
wind
direction
speed
MPH
gust
MPH
rain 1hr
in
rain 24hr
in
rain mn
in
humidity
%
barometer
mb
20260508180502 59 340 6.0 0.0 0.00 0.00 0.00 94 1016.0
20260508173502 59 110 3.0 0.0 0.00 0.00 0.00 94 1015.0
20260508170502 61 90 5.0 0.0 0.00 0.00 0.00 88 1015.0
20260508163502 61 80 6.0 0.0 0.00 0.00 0.00 94 1015.0
20260508160502 61 150 5.0 0.0 0.00 0.00 0.00 88 1015.0
20260508153505 61 150 6.0 0.0 0.00 0.00 0.00 94 1015.0
20260508150502 0 0.0 0.0 0.00 0.00 0.00
20260508143502 59 320 11.0 0.0 0.00 0.00 0.00 88 1015.0
20260508140502 0 320 11.0 0.0 0.00 0.00 0.00
20260508133502 73 120 9.0 0.0 0.00 0.00 0.00 50 1014.0
20260508130502 73 120 9.0 0.0 0.00 0.00 0.00 50 1014.0
20260508123503 73 100 11.0 0.0 0.00 0.00 0.00 53 1014.0
20260508120502 73 100 13.0 0.0 0.00 0.00 0.00 53 1014.0
20260508113502 72 90 13.0 0.0 0.00 0.00 0.00 57 1014.0
20260508110502 72 90 13.0 0.0 0.00 0.00 0.00 57 1014.0
20260508103503 70 100 13.0 0.0 0.00 0.00 0.00 60 1015.0
20260508100502 68 110 9.0 0.0 0.00 0.00 0.00 64 1015.0
20260508093502 66 110 10.0 0.0 0.00 0.00 0.00 64 1015.0
20260508090503 64 140 7.0 0.0 0.00 0.00 0.00 68 1015.0
20260508083502 63 130 5.0 0.0 0.00 0.00 0.00 73 1016.0
20260508080502 61 130 5.0 0.0 0.00 0.00 0.00 77
20260508073502 59 130 7.0 0.0 0.00 0.00 0.00 77 1015.0
20260508070502 57 130 8.0 0.0 0.00 0.00 0.00 82 1015.0
20260508063502 55 110 11.0 0.0 0.00 0.00 0.00 82 1015.0
20260508060502 54 110 11.0 0.0 0.00 0.00 0.00 88 1015.0
20260508053503 52 100 11.0 0.0 0.00 0.00 0.00 94 1015.0
20260508050502 52 110 11.0 0.0 0.00 0.00 0.00 88 1015.0
20260508043503 52 110 10.0 0.0 0.00 0.00 0.00 82 1015.0
20260508040502 52 110 10.0 0.0 0.00 0.00 0.00 82 1015.0
20260508033503 50 120 8.0 0.0 0.00 0.00 0.00 88 1015.0
20260508030502 50 110 8.0 0.0 0.00 0.00 0.00 88 1014.0
20260508023502 50 110 10.0 0.0 0.00 0.00 0.00 88 1014.0
20260508020502 50 110 9.0 0.0 0.00 0.00 0.00 88 1014.0
20260508013502 52 110 9.0 0.0 0.00 0.00 0.00 82 1014.0
20260508010502 52 110 10.0 0.0 0.00 0.00 0.00 82 1014.0
20260508003502 52 110 10.0 0.0 0.00 0.00 0.00 82 1014.0
20260508000503 52 110 10.0 0.0 0.00 0.00 0.00 82 1014.0
20260507233503 54 110 11.0 0.0 0.00 0.00 0.00 77 1014.0
20260507230502 54 110 11.0 0.0 0.00 0.00 0.00 77 1014.0
20260507223502 54 110 13.0 0.0 0.00 0.00 0.00 77 1014.0
20260507220502 55 120 11.0 0.0 0.00 0.00 0.00 72 1014.0
20260507213503 55 120 13.0 0.0 0.00 0.00 0.00 72 1014.0
20260507210503 57 120 13.0 0.0 0.00 0.00 0.00 67 1014.0
20260507203502 57 120 13.0 0.0 0.00 0.00 0.00 67 1014.0
20260507200502 61 120 13.0 0.0 0.00 0.00 0.00 63 1014.0
20260507193502 61 130 16.0 0.0 0.00 0.00 0.00 63 1014.0
20260507190503 63 120 15.0 0.0 0.00 0.00 0.00 59 1014.0
20260507183503 64 110 14.0 0.0 0.00 0.00 0.00 56 1014.0